Regional Weather Roundup
Issued by NWS

Home | Current Version | Previous Version | Graphics & Text | Print | Product List | Glossary On
Versions: 1 2 3 4 5 6 7 8 9 10 11 12 13 14 15 16 17 18 19 20 21 22 23 24 25 26 27 28 29 30 31 32 33 34 35 36 37 38 39 40 41 42 43 44 45 46
000
ASUS45 KBOU 252307
RWRCO

WEATHER ROUNDUP FOR COLORADO
NATIONAL WEATHER SERVICE DENVER/BOULDER CO
400 PM MST THU DEC 25 2014

NOTE: "FAIR" INDICATES FEW OR NO CLOUDS BELOW 12000 FEET WITH NO
SIGNIFICANT WEATHER AND/OR OBSTRUCTIONS TO VISIBILITY.

COZ001>005-013-030-031-260000-
...NORTHWEST COLORADO...

CITY           SKY/WX    TMP DP  RH WIND       PRES   REMARKS
CRAIG          LGT SNOW  28  24  85 W3        29.54R VSB 1
HAYDEN         CLOUDY    28  27  93 N5        29.51R VSB 1/2 WCI  23
MEEKER         CLOUDY    33  25  72 SW8       29.51R WCI  26
MOUNT WERNER   NOT AVBL
STEAMBOAT SPGS CLOUDY    30  25  80 CALM      29.51R
WALDEN         CLOUDY    28  25  86 CALM      29.50R VSB 1/4
$$

COZ006>008-011-260000-
...WEST CENTRAL VALLEYS...

CITY           SKY/WX    TMP DP  RH WIND       PRES   REMARKS
GRAND JUNCTION LGT SNOW  31  30  96 NW14      29.56R VSB 1   WCI  21
MONTROSE       MOCLDY    36  24  62 N10       29.54R
EAGLE          PTCLDY    37  21  52 SW14      29.52R
RIFLE          MOCLDY    33  29  85 SE6       29.53R WCI  28
DELTA          CLOUDY    41  27  56 S5        29.56R
NUCLA          MOCLDY    32  27  80 SW3       29.60R
$$

COZ017>023-064>068-260000-
...SOUTHWEST COLORADO...

CITY           SKY/WX    TMP DP  RH WIND       PRES   REMARKS
DURANGO        CLOUDY    32  24  72 CALM      29.60S
CORTEZ         CLOUDY    37  18  46 SW20G26   29.58R
PAGOSA SPRINGS LGT SNOW  29  28  94 S6        29.59F WCI  23
TELLURIDE      CLOUDY    25  16  68 SE7       29.55R WCI  18
WOLF CREEK PAS HVY SNOW  12  10  92 MISG      29.52S VSB 1/4
$$

COZ009-010-012-014-032>034-037-058>063-260000-
...CENTRAL COLORADO...

CITY           SKY/WX    TMP DP  RH WIND       PRES   REMARKS
ASPEN          CLOUDY    29  20  69 W7        29.50R WCI  22
BUENA VISTA    PTCLDY    34  13  40 CALM      29.50S
COPPER MTN     MOCLDY    19   9  63 SE13G22   29.50R WCI   7
BERTHOUD PASS  HAZE      12   5  73 MISG      29.52R VSB<1/4
COTTONWOOD PAS PTCLDY    30  10  43 W8        29.52R WCI  23
GUNNISON       PTCLDY    18  10  73 CALM      29.57F
KREMMLING      CLOUDY    30  23  74 E8        29.52R WCI  23
LEADVILLE      MOCLDY    24   8  50 SE9       29.49R WCI  14
MONARCH PASS   MOCLDY    16  10  79 MISG      29.61S
SALIDA         PTCLDY    35  14  41 S13G21    29.59R WCI  27
SUNLIGHT       LGT SNOW  21  19  93 MISG      29.53R
WILKERSON PASS MOCLDY    23  10  58 SW7       29.55R WCI  15
$$

COZ069>075-260000-
...SAN LUIS VALLEY/SANGRE DE CRISTO MOUNTAINS...

CITY           SKY/WX    TMP DP  RH WIND       PRES   REMARKS
ALAMOSA        CLOUDY    32  20  61 S14       29.58R WCI  22
LA VETA PASS   NOT AVBL
SAGUACHE       PTCLDY    23  16  74 N7        29.55F WCI  15
$$

COZ035-036-038>040-260000-
...NORTHERN COLORADO FRONT RANGE...

CITY           SKY/WX    TMP DP  RH WIND       PRES   REMARKS
DENVER INTL AP LGT SNOW  31  29  92 NE14      29.58R FOG     WCI  21
DMNS CITY PARK   N/A     32  31  94 N9G17     29.59R WCI  25
AURORA         FLURRIES  33  30  88 NE12      29.58R WCI  24
FRONT RANGE AP NOT AVBL
ERIE MUNI ARPT LGT SNOW  32  32  99 NE6       29.60R WCI  27
BOULDER MUN AP LGT SNOW  32  32 100 NW5       29.60R VSB 3/4 WCI  27
CENTENNIAL     FLURRIES  33  29  85 NE8       29.56R WCI  26
BROOMFIELD     LGT SNOW  32  32 100 N13         N/A  WCI  22
FORT COLLINS   CLOUDY    28  25  86 N14       29.65R VSB 1/2 WCI  17
LONGMONT       LGT SNOW  34  33  94 N9        29.63R WCI  27
$$

COZ041-046-047-076>085-087-088-260000-
...PIKES PEAK/PALMER DIVIDE AND SOUTHERN FOOTHILLS...

CITY           SKY/WX    TMP DP  RH WIND       PRES   REMARKS
COLO. SPRINGS  PTCLDY    39  25  57 NE15      29.54R
A. F. ACADEMY  PTCLDY    35  25  68 N9        29.54R WCI  27
ELLICOTT       NOT AVBL
FALCON         CLEAR     33  25  72 N9G17     29.54R WCI  25
FORT CARSON    CLEAR     43  23  46 N12       29.51R
LIMON          MOCLDY    33  27  78 N15       29.55R WCI  23
MONUMENT HILL  CLOUDY    32  27  80 NE10      29.55R WCI  24
TRINIDAD       CLEAR     45  19  35 W22       29.54R
$$

COZ042>045-048>051-090-091-260000-
...NORTHEAST COLORADO...

CITY           SKY/WX    TMP DP  RH WIND       PRES   REMARKS
GREELEY ARPT   CLOUDY    28  23  80 NE12      29.63R VSB 1   WCI  18
AKRON          CLOUDY    29  28  96 N21       29.60R WCI  16
BURLINGTON     CLEAR     39  26  59 N13       29.53R
WRAY           MOCLDY    37  28  71 N18       29.59R
STERLING       LGT SNOW  32  32 100 NE13      29.64R WCI  22
HOLYOKE        CLOUDY    34  28  80 NE22      29.63R WCI  22
FORT MORGAN    LGT SNOW  29  27  91 NE17      29.62R VSB 1   WCI  17
$$

COZ086-089-092>099-260000-
...SOUTHEAST COLORADO...

CITY           SKY/WX    TMP DP  RH WIND       PRES   REMARKS
PUEBLO         CLEAR     52  12  20 W14       29.48R
LA JUNTA       CLEAR     55  15  20 SW23G31   29.49R
LAMAR          CLEAR     57  25  29 W10       29.48R
SPRINGFIELD      N/A     54  19  25 SW17G28   29.54R
$$


USA.gov is the U.S. government's official web portal to all federal, state and local government web resources and services.